TimeEDT,TemperatureF,Dew PointF,Humidity,Sea Level PressureIn,VisibilityMPH,Wind Direction,Wind SpeedMPH,Gust SpeedMPH,PrecipitationIn,Events,Conditions,WindDirDegrees,DateUTC
12:54 AM,36.0,10.9,36,30.44,10.0,SSW,6.9,-,N/A,,Clear,210,2012-03-11 05:54:00
1:54 AM,34.0,12.0,40,30.43,10.0,SSW,5.8,-,N/A,,Clear,200,2012-03-11 06:54:00
3:54 AM,35.1,12.0,39,30.43,10.0,SSW,4.6,-,N/A,,Clear,210,2012-03-11 07:54:00
4:54 AM,36.0,10.9,36,30.42,10.0,SW,6.9,-,N/A,,Clear,220,2012-03-11 08:54:00
5:54 AM,37.0,10.9,34,30.43,10.0,SSW,5.8,-,N/A,,Clear,210,2012-03-11 09:54:00
6:54 AM,36.0,12.0,37,30.44,10.0,SSW,6.9,-,N/A,,Clear,210,2012-03-11 10:54:00
7:54 AM,37.4,12.2,36,30.39,10.0,SSW,6.9,-,N/A,,Clear,210,2012-03-11 11:54:00
8:54 AM,39.9,14.0,35,30.47,10.0,SSW,8.1,-,N/A,,Clear,210,2012-03-11 12:54:00
9:54 AM,45.0,15.1,30,30.47,10.0,SW,6.9,-,N/A,,Clear,230,2012-03-11 13:54:00
10:54 AM,48.0,19.0,32,30.46,10.0,SW,9.2,-,N/A,,Clear,230,2012-03-11 14:54:00
11:54 AM,52.0,19.9,28,30.45,10.0,WSW,9.2,-,N/A,,Clear,240,2012-03-11 15:54:00
12:54 PM,54.0,21.0,28,30.43,10.0,WSW,9.2,-,N/A,,Clear,250,2012-03-11 16:54:00
1:54 PM,57.9,19.9,23,30.40,10.0,WSW,10.4,17.3,N/A,,Clear,250,2012-03-11 17:54:00
2:54 PM,59.0,21.9,24,30.38,10.0,SW,11.5,16.1,N/A,,Clear,230,2012-03-11 18:54:00
3:54 PM,60.1,21.9,23,30.37,10.0,SSW,10.4,-,N/A,,Clear,210,2012-03-11 19:54:00
4:54 PM,60.8,21.2,22,30.32,10.0,WSW,11.5,-,N/A,,Clear,250,2012-03-11 20:54:00
5:54 PM,60.1,21.0,22,30.33,10.0,West,8.1,-,N/A,,Clear,270,2012-03-11 21:54:00
6:54 PM,55.9,23.0,28,30.34,10.0,West,6.9,-,N/A,,Clear,280,2012-03-11 22:54:00
7:54 PM,54.0,21.0,28,30.34,10.0,West,4.6,-,N/A,,Clear,270,2012-03-11 23:54:00
8:54 PM,53.6,21.2,28,30.31,10.0,WSW,3.5,-,N/A,,Clear,240,2012-03-12 00:54:00
9:54 PM,54.0,21.0,28,30.35,10.0,SW,3.5,-,N/A,,Clear,220,2012-03-12 01:54:00
10:54 PM,52.0,21.0,30,30.34,10.0,SW,4.6,-,N/A,,Clear,220,2012-03-12 02:54:00
11:54 PM,51.1,21.0,31,30.33,10.0,South,3.5,-,N/A,,Clear,180,2012-03-12 03:54:00
12:54 AM,51.1,21.0,31,30.32,10.0,South,5.8,-,N/A,,Clear,180,2012-03-12 04:54:00